sat.trackr.live / text

‹ back to catalog

STARLINK-33838

NORAD 63500 · 2025-071H

PAYLOAD ACTIVE UNKNOWN

§ Identity

Operator
Country
US
Launch date
2025-04-07
Launch site
AFWTR
Launch vehicle
Mass (kg)
RCS (m²)

Purposes: comms

External: N2YO · Heavens-Above · Gunter

§ Orbital elements

Epoch: 2026-09-20T10:51:44.988192Z

Period
93.90 min
Inclination
53.1625°
Eccentricity
0.0002434
Mean motion
15.33533973 rev/d
Perigee alt
463.6 km
Apogee alt
466.9 km
Semi-major
6,843.4 km
B*
5.4997e-4
RAAN
313.5274°
Arg perigee
61.8814°
Mean anomaly
298.2435°
Rev number
8,240

§ Raw data

STARLINK-338381 63500U 25071H   26263.45260403  .00017749  00000+0  54997-3 0  99962 63500  53.1625 313.5274 0002434  61.8814 298.2435 15.33533973 82403

JSON: /api/v1/satellites/63500 · /tle

For live sub-satellite position, see the globe view (requires WebGL).

§ Visibility from observer

Set your observer location to see the next 7 days of passes ≥ 10°. The values pass through the URL so the page stays shareable.

No JS? Fill the form by hand. The geolocation button needs JavaScript.